sat.trackr.live / text

‹ back to catalog

YAOGAN-43 02F

NORAD 60950 · 2024-156F

PAYLOAD ACTIVE UNKNOWN

§ Identity

Operator
Country
PRC
Launch date
2024-09-03
Launch site
XICLF
Launch vehicle
Mass (kg)
RCS (m²)

External: N2YO · Heavens-Above · Gunter

§ Orbital elements

Epoch: 2026-09-22T18:50:44.380896Z

Period
94.55 min
Inclination
34.9938°
Eccentricity
0.0001429
Mean motion
15.23064635 rev/d
Perigee alt
495.6 km
Apogee alt
497.6 km
Semi-major
6,874.7 km
B*
2.0390e-4
RAAN
304.0445°
Arg perigee
171.2591°
Mean anomaly
188.8149°
Rev number
11,433

§ Raw data

YAOGAN-43 02F1 60950U 24156F   26265.78523589  .00004888  00000+0  20390-3 0  99902 60950  34.9938 304.0445 0001429 171.2591 188.8149 15.23064635114336

JSON: /api/v1/satellites/60950 · /tle

For live sub-satellite position, see the globe view (requires WebGL).

§ Visibility from observer

Set your observer location to see the next 7 days of passes ≥ 10°. The values pass through the URL so the page stays shareable.

No JS? Fill the form by hand. The geolocation button needs JavaScript.